Regional Weather Roundup
Issued by NWS

Home | Current Version | Previous Version | Graphics & Text | Print | Product List | Glossary On
Versions: 1 2 3 4 5 6 7 8 9 10 11 12 13 14 15 16 17 18 19 20 21 22 23 24 25 26 27 28 29 30 31 32 33 34 35 36 37 38 39 40 41 42 43 44 45 46 47 48 49 50
000
ASUS43 KMPX 190901
RWRMN
WEATHER ROUNDUP FOR MINNESOTA
NATIONAL WEATHER SERVICE TWIN CITIES/CHANHASSEN MN
400 AM CDT SAT AUG 19 2017


NOTE: "FAIR" INDICATES FEW OR NO CLOUDS BELOW 12,000 FEET WITH NO
SIGNIFICANT WEATHER AND/OR OBSTRUCTIONS TO VISIBILITY. N/A MEANS
CURRENT SKY AND/OR WEATHER CONDITIONS ARE NOT AVAILABLE.

MNZ060>063-068>070-191000-
   Twin Cities Metro

CITY           SKY/WX    TMP DP  RH WIND       PRES   REMARKS
TWIN CITIES    PTCLDY    62  58  86 CALM      29.92S
ST PAUL        CLEAR     58  58 100 CALM      29.92R FOG
CRYSTAL        CLEAR     56  54  93 CALM      29.90S FOG
BLAINE         CLEAR     57  57 100 CALM      29.91S FOG
LAKEVILLE        N/A     54  54 100 CALM      29.92S FOG
EDEN PRAIRIE     N/A     59  58  96 CALM      29.91R VSB 1/4
SOUTH ST PAUL  CLEAR     58  58  99 CALM      29.92R FOG
LAKE ELMO      FOG       55  55 100 CALM      29.92S VSB 1/4
$$
MNZ001>005-007-008-013>017-022>024-027-028-191000-
   Northwest Minnesota

CITY           SKY/WX    TMP DP  RH WIND       PRES   REMARKS
BEMIDJI        CLEAR     57  56  95 SW5       29.88R
HALLOCK        CLEAR     54  52  94 SE7       29.82S
ROSEAU         CLEAR     55  50  82 CALM      29.83S
WARROAD        CLEAR     55  52  88 SW3       29.83S
CROOKSTON      CLEAR     54  54 100 SE6       29.86R
FOSSTON        CLEAR     54  52  94 S3        29.88S
DETROIT LAKES  CLEAR     61  59  94 CALM      29.90S
MOORHEAD       CLEAR     57  57 100 CALM      29.89S
PARK RAPIDS    CLEAR     56  54  93 CALM      29.89S
MAHNOMEN       FAIR      55  55  97 S8        29.88S
$$
MNZ006-009>011-018-025>026-191000-
   North Central Minnesota

CITY           SKY/WX    TMP DP  RH WIND       PRES   REMARKS
BAUDETTE       CLEAR     54  53  97 S3        29.83S
FLAG ISLAND    CLEAR     66  54  63 CALM      29.80S HAZE
INTL FALLS     CLEAR     55  53  93 CALM      29.83S
WASKISH        CLEAR     57  55  94 CALM      29.85F FOG
BIG FORK       CLEAR     55  54  94 CALM      29.86S
LONGVILLE      CLEAR     54  54 100 SW5       29.88S FOG
GRAND RAPIDS   CLEAR     60  57  89 N3        29.89S
CRANE LAKE     CLEAR     46  46 100 CALM      29.85S FOG
ORR            CLEAR     54  52  94 CALM      29.83S FOG
COOK           CLEAR     55  55 100 CALM      29.86S
WALKER         FAIR      55  55  97 W3        29.88S
$$
MNZ012-019>021-037-191000-
   Northeast Minnesota

CITY           SKY/WX    TMP DP  RH WIND       PRES   REMARKS
DULUTH         CLEAR     57  57 100 W8        29.87S
ELY            CLEAR     55  55 100 CALM      29.85R
HIBBING        FOG       48  48 100 SW3       29.86S VSB 1/2
EVELETH        CLEAR     57  54  92 W5        29.87S
DULUTH HARBOR  CLEAR     59  57  94 S7        29.86S
TWO HARBORS    CLEAR     63  57  82 NW5       29.83S
SILVER BAY     CLEAR     61  57  88 CALM      29.82S
GRAND MARAIS     N/A     64  59  83 NW7       29.79S
$$
MNZ029>031-032-039>041-046>048-054>057-064-191000-
   West Central Minnesota

CITY           SKY/WX    TMP DP  RH WIND       PRES   REMARKS
FERGUS FALLS   CLEAR     59  59 100 S3        29.90S
WHEATON        CLEAR     55  54  94 SW3       29.92S
MORRIS         CLEAR     55  55 100 S3        29.90S FOG
ALEXANDRIA     CLEAR     58  57  97 SW6       29.92F
ELBOW LAKE     FAIR      56  56 100 S5        29.91S
WADENA         CLEAR     57  57 100 W5        29.90S
GLENWOOD       FOG       57  57 100 SW5       29.92F VSB<1/4
APPLETON       FOG       54  52  94 CALM      29.91S VSB 1/4
BENSON         FOG       54  52  94 CALM      29.93S VSB 1/2
ORTONVILLE     CLEAR     55  54  94 MISG      29.92R
MADISON        CLEAR     57  57 100 CALM      29.91F FOG
WILLMAR        FOG       55  55 100 CALM      29.94S VSB 3/4
$$
MNZ033>034-036-042>043-049>051-058-059-191000-
   Central Minnesota

CITY           SKY/WX    TMP DP  RH WIND       PRES   REMARKS
ST CLOUD       FOG       53  53 100 CALM      29.91S VSB 1/2
SAUK CENTRE    FOG       55  55 100 CALM      29.92S VSB 3/4
PAYNESVILLE    FOG       52  52 100 W5        29.93R VSB 1/4
AITKIN         CLEAR     57  55  94 W3        29.88S
PINE RIVER     FOG       48  48 100 CALM      29.93S VSB 3/4
BRAINERD       CLEAR     55  55 100 S5        29.89F FOG
STAPLES        CLEAR     57  55  94 CALM      29.90S
LONG PRAIRIE   FOG       52  52 100 CALM      29.91F VSB 1/4
LITTLE FALLS   FOG       52  52 100 CALM      29.91S VSB 1/2
LITCHFIELD       N/A     57  57 100 CALM      29.93R FOG
BUFFALO        FOG       55  53  94 CALM      29.93S VSB 1/2
MAPLE LAKE     FOG       56  55  99 CALM      29.92S VSB 1/2
HUTCHINSON     FOG       55  55 100 CALM      29.92F VSB 1/4
$$
MNZ037-044-045-052-053-191000-
   East Central Minnesota

CITY           SKY/WX    TMP DP  RH WIND       PRES   REMARKS
PRINCETON      FOG       54  54 100 CALM      29.91S VSB 1/2
MORA             N/A     50  50 100 CALM      29.92S FOG
CAMBRIDGE      FOG       57  55  94 CALM      29.91S VSB 1
RUSH CITY      FOG       54  53  97 CALM      29.91S VSB 1/2
MOOSE LAKE       N/A     50  46  87 CALM      29.87S FOG
HINCKLEY       FOG       52  52 100 CALM      29.90S VSB 1/2
CLOQUET        CLEAR     59  55  88 W7        29.88S
MCGREGOR         N/A     55  54  94 CALM      29.89S VSB 1
$$
MNZ071>073-080-081-089-090-097-098-191000-
   Southwest Minnesota

CITY           SKY/WX    TMP DP  RH WIND       PRES   REMARKS
MONTEVIDEO     FOG       55  55 100 CALM      29.92F VSB 1/2
GRANITE FALLS  FOG       58  58 100 CALM      29.94S VSB<1/4
CANBY          CLEAR     56  55  96 CALM      29.93S
MARSHALL       CLEAR     57  56  96 S3        29.93F
REDWOOD FALLS  FOG       57  56  96 W7        29.93R VSB 1/4
OLIVIA         FOG       54  52  94 CALM      29.92S VSB 3/4
PIPESTONE      CLEAR     57  55  94 CALM      29.94S FOG
WINDOM         FOG       52  52 100 W6        29.94R VSB 3/4
WORTHINGTON    FOG       59  59 100 NW6       29.96R VSB 1/2
JACKSON        CLEAR     54  54 100 CALM      29.91S FOG
TRACY          FOG       59  59 100 CALM      29.94S VSB 1/4
SLAYTON        FOG       58  55  88 W6        29.96R VSB 1/4
$$
MNZ065>067-074>077-082>085-091>093-191000-
   South Central Minnesota

CITY           SKY/WX    TMP DP  RH WIND       PRES   REMARKS
MANKATO        CLEAR     55  55 100 SE5       29.93S FOG
NEW ULM        FOG       57  55  94 NW3         N/A  VSB<1/4
ST JAMES       CLEAR     54  54 100 CALM      29.94R FOG
FAIRMONT       CLEAR     55  54  96 CALM      29.93F FOG
GLENCOE        FOG       56  56 100 CALM      29.92R VSB 1/2
FARIBAULT      FOG       55  54  94 CALM      29.93S VSB 1/4
OWATONNA       CLEAR     55  54  94 CALM      29.94S FOG
WASECA         FOG       52  52 100 CALM      29.94S VSB 1/4
ALBERT LEA     FOG       57  57 100 CALM      29.94S VSB 1/2
$$
MNZ078>079-086>088-094>096-191000-
   Southeast Minnesota

CITY           SKY/WX    TMP DP  RH WIND       PRES   REMARKS
ROCHESTER      CLEAR     54  53  97 W3        29.95R
RED WING       FOG       57  55  94 CALM      29.91S VSB<1/4
STANTON        CLEAR     54  53  96 CALM      29.91F FOG
DODGE CENTER   CLEAR     52  52 100 CALM      29.94F FOG
WINONA         CLEAR     55  54  94 CALM      29.93S
AUSTIN         PTCLDY    55  55 100 CALM      29.94S FOG
PRESTON        CLEAR     55  53  94 S3        29.95S FOG
$$
ABBREVIATIONS USED IN REMARKS
   TC - TEMPERATURES IN CELSIUS
  WCI - WIND CHILL INDEX
   HX - HEAT INDEX
  VSB - VISIBILITY
$$



USA.gov is the U.S. government's official web portal to all federal, state and local government web resources and services.